SCP
0 0 0 0 0 0 0 0 0 0 0 -0 -0 -0 0 0 -0 -0 -0 -0 -0 -0 -0 -0 -0 -0 -0 -0 -0 -0 -0 -0 -0
0 0 0 0 0 0 0 0 0 0 0 0 0 0 0 0 0 0 -0 -0 0 -0 -0 -0 -0 -0 -0 -0 -0 -0 -0 -0 -0
0 0 0 0 0 0 0 0 0 0 0 0 0 0 0 0 0 0 0 0 0 0 0 0 0 -0 -0 -0 -0 -0 -0 -0 -0
0 0 0 0 0 0 0 0 0 0 0 0 0 0 0 0 0 0 0 0 0 0 0 0 0 0 0 0 0 0 0 -0 -0
0 0 0 0 0 0 0 0 0 0 0 0 0 0 0 0 0 0 0 0 0 0 0 0 0 0 0 0 0 0 0 0 0
0 0 0 0 0 0 0 0 0 0 0 0 0 0 0 0 0 0 0 0 0 0 0 0 0 0 0 0 0 0 0 0 0
0 0 0 0 0 0 0 0 0 0 0 0 0 0 0 0 0 0 0 0 0 0 0 0 0 0 0 0 0 0 0 0 0
0 0 0 0 0 0 0 0 0 0 0 0 0 0 0 0 0 0 0 0 0 0 0 0 0 0 0 0 0 0 0 0 0
0 0 0 0 0 0 0 0 0 0 0 0 0 0 0 0 0 0 0 0 0 0 0 0 0 0 0 0 0 0 0 0 0
0 0 0 0 0 0 0 0 0 0 0 0 0 0 0 0 0 0 0 0 0 0 0 0 0 0 0 0 0 0 0 0 0
0 0 0 0 0 0 0 0 0 0 0 0 0 0 0 0 0 0 0 0 0 0 0 0 0 0 0 0 0 0 0 0 0
0 0 0 0 0 0 0 0 0 0 0 0 0 0 0 0 0 0 0 0 0 0 0 0 0 0 0 0 0 0 0 0 0
0 0 0 0 0 0 0 0 0 0 0 0 0 0 0 0 0 0 0 0 0 0 0 0 0 0 0 0 0 0 0 0 0
0 0 0 0 0 0 0 0 0 0 0 0 0 0 0 0 0 0 0 0 0 0 0 0 0 0 0 0 0 0 0 0 0
0 0 0 0 0 0 0 0 0 0 0 0 0 0 0 0 0 0 0 0 0 0 0 0 0 0 0 0 0 0 0 0 0
0 0 0 0 0 0 0 0 0 0 0 0 -0 -0 -0 0 0 0 0 0 0 0 0 0 0 0 0 0 0 0 0 0 0
0 0 0 0 0 0 0 0 0 0 0 0 -0 -0 -0 -0 0 0 0 0 0 0 0 0 0 0 0 0 0 0 0 0 0
0 0 0 0 0 0 0 0 0 0 0 0 0 -0 -0 0 0 0 0 0 0 0 0 0 0 0 0 0 0 0 0 0 0
0 0 0 0 0 0 0 0 0 0 0 0 0 0 0 0 0 0 0 0 0 0 0 0 0 0 0 0 0 0 0 0 0
0 0 0 0 0 0 0 0 0 0 0 0 0 0 0 0 0 0 0 0 0 0 0 0 0 0 0 0 0 0 0 0 0
Wind_Speed_500mb
21 21 21 22 22 22 22 23 21 17 13 9 9 14 15 10 15 22 27 32 28 29 25 21 17 11 16 20 19 19 16 14 14
21 22 22 22 22 22 22 22 20 19 17 12 10 11 10 8 12 17 24 26 28 23 24 23 19 16 9 12 16 17 19 21 18
12 11 15 14 14 14 13 14 13 14 15 14 9 8 7 6 10 13 17 21 23 20 17 18 19 16 14 7 10 13 16 16 17
5 7 9 9 9 9 9 9 8 8 9 9 9 8 6 5 8 12 12 15 18 18 13 12 12 14 12 10 6 9 8 5 7
7 7 7 7 7 6 6 5 6 5 5 3 3 2 4 6 6 6 9 12 14 16 12 11 8 6 9 7 5 6 6 8 10
6 7 5 4 6 6 6 5 3 1 2 4 4 5 4 1 2 0 3 8 14 15 13 11 9 6 2 3 2 1 7 9 12
6 7 8 11 14 14 14 13 11 7 4 3 6 9 8 8 9 10 11 13 14 18 17 14 11 9 10 7 5 6 6 11 12
9 12 15 16 19 19 20 19 17 15 13 10 8 8 11 15 17 19 20 22 22 23 23 20 18 16 14 16 12 12 13 14 15
13 16 19 20 22 20 20 20 21 20 19 18 15 12 14 17 20 22 25 25 24 21 19 18 19 22 22 19 20 18 18 18 20
15 17 18 17 17 15 17 18 20 24 27 26 25 21 17 20 24 25 27 27 26 23 18 16 18 17 23 27 26 26 24 25 22
15 14 12 10 9 10 13 17 22 27 30 33 33 31 26 23 25 30 30 28 28 27 25 20 17 17 19 25 30 31 29 30 26
11 8 5 2 5 10 14 18 22 25 29 33 37 36 31 29 26 25 27 27 27 26 24 22 17 17 20 21 24 32 35 33 33
10 6 5 7 10 12 16 21 26 31 36 38 40 41 38 29 22 17 17 18 22 24 21 20 20 13 15 16 19 24 27 37 39
12 11 12 14 16 19 24 28 32 37 41 45 47 45 40 22 23 17 12 8 8 14 20 21 20 20 20 14 13 15 20 26 35
15 17 19 22 24 27 31 33 35 41 46 49 52 50 38 39 29 20 19 16 16 17 19 21 23 24 27 27 26 19 9 17 25
19 24 28 29 29 32 37 39 39 41 47 56 61 59 51 36 15 8 3 24 28 28 29 31 33 33 34 36 39 36 27 18 17
25 29 30 32 34 38 41 41 41 42 45 50 53 38 52 4 8 24 41 35 34 35 37 39 41 42 44 45 44 42 38 36 33
33 35 36 38 41 43 44 43 43 44 45 45 40 22 13 58 45 51 52 45 46 46 44 42 41 42 43 47 50 50 49 47 47
41 42 44 44 45 45 44 45 44 44 43 47 48 45 45 37 40 52 67 66 61 55 54 51 48 46 45 48 49 50 53 55 56
46 48 50 49 48 47 44 41 42 46 51 52 51 51 49 48 55 69 69 72 71 66 64 60 55 51 50 49 50 54 56 55 56
Wind_Direction_500mb
81 93 95 97 91 86 84 84 89 103 124 131 103 81 88 63 39 37 40 33 39 46 54 61 74 103 86 79 76 84 87 108 135
99 95 97 95 90 88 87 87 87 89 95 122 133 101 96 85 36 31 27 30 29 39 44 51 59 65 107 100 86 86 86 91 96
112 89 91 90 91 94 100 100 98 90 92 100 124 125 125 66 26 25 19 24 17 22 35 42 48 54 59 116 118 104 97 98 104
128 114 102 94 98 106 116 110 109 96 98 111 106 98 104 69 66 45 19 11 16 16 3 16 36 47 49 64 139 140 104 154 141
141 143 137 128 115 116 108 115 111 91 98 128 132 76 73 100 93 40 17 4 8 12 360 343 352 25 47 46 76 142 158 134 133
168 166 163 121 100 99 96 97 89 97 256 250 254 279 289 213 215 181 356 344 337 337 338 334 316 296 315 46 20 166 159 162 148
151 134 111 98 91 87 81 78 70 62 44 307 277 269 270 257 258 268 281 288 301 308 305 303 296 276 250 260 245 236 211 190 189
120 114 108 100 92 84 78 73 67 55 41 24 1 318 287 272 265 267 273 279 282 288 292 288 275 267 260 247 246 236 228 222 217
123 119 110 106 96 85 74 61 50 36 25 12 354 331 304 287 277 272 273 276 280 282 288 287 271 257 254 254 243 235 232 236 229
132 125 117 107 90 73 59 46 36 28 20 9 358 344 317 288 278 274 269 270 273 273 272 285 280 271 256 250 245 239 236 234 239
143 133 122 102 81 51 33 22 17 16 13 10 5 355 339 314 290 277 272 269 268 269 271 266 277 279 274 261 251 246 244 239 236
159 152 135 73 15 7 3 358 358 356 0 2 0 357 342 325 310 296 284 270 263 263 270 276 276 288 284 276 266 253 246 245 240
193 210 250 301 322 331 332 335 341 343 346 350 353 353 346 337 329 317 303 284 261 258 258 257 252 253 288 288 277 265 253 242 242
229 254 276 294 304 315 322 325 329 333 335 338 342 345 343 326 315 303 300 302 273 248 247 251 252 262 268 273 308 315 274 254 244
257 273 289 297 304 313 316 315 320 327 328 330 330 335 338 329 307 273 257 275 272 267 259 252 257 266 271 278 281 272 280 284 264
276 288 296 296 296 305 307 307 312 319 324 326 324 329 336 333 280 189 224 294 272 273 270 267 265 264 269 275 281 270 257 231 253
284 289 294 295 293 300 304 305 308 315 322 328 334 331 334 356 246 273 283 283 289 277 279 282 275 271 267 267 264 261 259 256 257
284 287 291 289 288 293 298 299 303 309 315 319 326 324 301 309 311 298 297 295 294 291 289 283 279 273 268 263 257 255 257 258 260
275 278 278 278 279 286 287 290 295 301 307 309 311 305 299 299 303 298 300 301 298 295 293 291 286 280 274 267 262 257 254 256 258
277 275 273 274 276 276 276 282 291 297 301 305 305 301 295 292 291 298 299 297 298 297 295 293 290 286 283 276 268 263 258 257 256
Wind_Speed_850mb
21 21 21 22 22 22 22 23 21 17 13 9 9 14 15 10 15 22 27 32 28 29 25 21 17 11 16 20 19 19 16 14 14
21 22 22 22 22 22 22 22 20 19 17 12 10 11 10 8 12 17 24 26 28 23 24 23 19 16 9 12 16 17 19 21 18
12 11 15 14 14 14 13 14 13 14 15 14 9 8 7 6 10 13 17 21 23 20 17 18 19 16 14 7 10 13 16 16 17
5 7 9 9 9 9 9 9 8 8 9 9 9 8 6 5 8 12 12 15 18 18 13 12 12 14 12 10 6 9 8 5 7
7 7 7 7 7 6 6 5 6 5 5 3 3 2 4 6 6 6 9 12 14 16 12 11 8 6 9 7 5 6 6 8 10
6 7 5 4 6 6 6 5 3 1 2 4 4 5 4 1 2 0 3 8 14 15 13 11 9 6 2 3 2 1 7 9 12
6 7 8 11 14 14 14 13 11 7 4 3 6 9 8 8 9 10 11 13 14 18 17 14 11 9 10 7 5 6 6 11 12
9 12 15 16 19 19 20 19 17 15 13 10 8 8 11 15 17 19 20 22 22 23 23 20 18 16 14 16 12 12 13 14 15
13 16 19 20 22 20 20 20 21 20 19 18 15 12 14 17 20 22 25 25 24 21 19 18 19 22 22 19 20 18 18 18 20
15 17 18 17 17 15 17 18 20 24 27 26 25 21 17 20 24 25 27 27 26 23 18 16 18 17 23 27 26 26 24 25 22
15 14 12 10 9 10 13 17 22 27 30 33 33 31 26 23 25 30 30 28 28 27 25 20 17 17 19 25 30 31 29 30 26
11 8 5 2 5 10 14 18 22 25 29 33 37 36 31 29 26 25 27 27 27 26 24 22 17 17 20 21 24 32 35 33 33
10 6 5 7 10 12 16 21 26 31 36 38 40 41 38 29 22 17 17 18 22 24 21 20 20 13 15 16 19 24 27 37 39
12 11 12 14 16 19 24 28 32 37 41 45 47 45 40 22 23 17 12 8 8 14 20 21 20 20 20 14 13 15 20 26 35
15 17 19 22 24 27 31 33 35 41 46 49 52 50 38 39 29 20 19 16 16 17 19 21 23 24 27 27 26 19 9 17 25
19 24 28 29 29 32 37 39 39 41 47 56 61 59 51 36 15 8 3 24 28 28 29 31 33 33 34 36 39 36 27 18 17
25 29 30 32 34 38 41 41 41 42 45 50 53 38 52 4 8 24 41 35 34 35 37 39 41 42 44 45 44 42 38 36 33
33 35 36 38 41 43 44 43 43 44 45 45 40 22 13 58 45 51 52 45 46 46 44 42 41 42 43 47 50 50 49 47 47
41 42 44 44 45 45 44 45 44 44 43 47 48 45 45 37 40 52 67 66 61 55 54 51 48 46 45 48 49 50 53 55 56
46 48 50 49 48 47 44 41 42 46 51 52 51 51 49 48 55 69 69 72 71 66 64 60 55 51 50 49 50 54 56 55 56
Wind_Direction_850mb
81 93 95 97 91 86 84 84 89 103 124 131 103 81 88 63 39 37 40 33 39 46 54 61 74 103 86 79 76 84 87 108 135
99 95 97 95 90 88 87 87 87 89 95 122 133 101 96 85 36 31 27 30 29 39 44 51 59 65 107 100 86 86 86 91 96
112 89 91 90 91 94 100 100 98 90 92 100 124 125 125 66 26 25 19 24 17 22 35 42 48 54 59 116 118 104 97 98 104
128 114 102 94 98 106 116 110 109 96 98 111 106 98 104 69 66 45 19 11 16 16 3 16 36 47 49 64 139 140 104 154 141
141 143 137 128 115 116 108 115 111 91 98 128 132 76 73 100 93 40 17 4 8 12 360 343 352 25 47 46 76 142 158 134 133
168 166 163 121 100 99 96 97 89 97 256 250 254 279 289 213 215 181 356 344 337 337 338 334 316 296 315 46 20 166 159 162 148
151 134 111 98 91 87 81 78 70 62 44 307 277 269 270 257 258 268 281 288 301 308 305 303 296 276 250 260 245 236 211 190 189
120 114 108 100 92 84 78 73 67 55 41 24 1 318 287 272 265 267 273 279 282 288 292 288 275 267 260 247 246 236 228 222 217
123 119 110 106 96 85 74 61 50 36 25 12 354 331 304 287 277 272 273 276 280 282 288 287 271 257 254 254 243 235 232 236 229
132 125 117 107 90 73 59 46 36 28 20 9 358 344 317 288 278 274 269 270 273 273 272 285 280 271 256 250 245 239 236 234 239
143 133 122 102 81 51 33 22 17 16 13 10 5 355 339 314 290 277 272 269 268 269 271 266 277 279 274 261 251 246 244 239 236
159 152 135 73 15 7 3 358 358 356 0 2 0 357 342 325 310 296 284 270 263 263 270 276 276 288 284 276 266 253 246 245 240
193 210 250 301 322 331 332 335 341 343 346 350 353 353 346 337 329 317 303 284 261 258 258 257 252 253 288 288 277 265 253 242 242
229 254 276 294 304 315 322 325 329 333 335 338 342 345 343 326 315 303 300 302 273 248 247 251 252 262 268 273 308 315 274 254 244
257 273 289 297 304 313 316 315 320 327 328 330 330 335 338 329 307 273 257 275 272 267 259 252 257 266 271 278 281 272 280 284 264
276 288 296 296 296 305 307 307 312 319 324 326 324 329 336 333 280 189 224 294 272 273 270 267 265 264 269 275 281 270 257 231 253
284 289 294 295 293 300 304 305 308 315 322 328 334 331 334 356 246 273 283 283 289 277 279 282 275 271 267 267 264 261 259 256 257
284 287 291 289 288 293 298 299 303 309 315 319 326 324 301 309 311 298 297 295 294 291 289 283 279 273 268 263 257 255 257 258 260
275 278 278 278 279 286 287 290 295 301 307 309 311 305 299 299 303 298 300 301 298 295 293 291 286 280 274 267 262 257 254 256 258
277 275 273 274 276 276 276 282 291 297 301 305 305 301 295 292 291 298 299 297 298 297 295 293 290 286 283 276 268 263 258 257 256